Location: Newark
(45.5000°N, 11.4167°E)
Time: 21:41:38
(UTC+00:00)

Vanguard 2 - Pass Details

Date: 29 August 2019
Orbit: 554 x 2937 km, 32.9° (Epoch: 18 September)

Event Time Altitude Azimuth Distance (km) Brightness Sun altitude
Rises 11:27:41 0° 239° (WSW) 2,963 10.8 53.8°
Reaches altitude 10° 11:30:04 10° 225° (SW) 2,223 10.5 53.7°
Maximum altitude 11:34:14 25° 170° (S) 1,758 10.6 53.6°
Drops below altitude 10° 11:40:02 10° 118° (ESE) 3,188 11.0 53.5°
Sets 11:44:13 0° 108° (ESE) 4,606 11.6 53.3°
